CW9676 Weather Reports


time (UTC)temp
C
wind
direction
speed
KPH
gust
KPH
rain 1hr
cm
rain 24hr
cm
rain mn
cm
humidity
%
barometer
mb
20260508222547 27 223 16.1 32.2 0.00 0.00 0.00 11 1003.7
20260508221549 27 165 16.1 32.2 0.00 0.00 0.00 11 1003.7
20260508220608 27 194 11.3 35.4 0.00 0.00 0.00 12 1003.8
20260508215540 27 249 16.1 35.4 0.00 0.00 0.00 12 1004.1
20260508214525 28 273 11.3 24.1 0.00 0.00 0.00 12 1004.2
20260508213501 27 221 12.9 29.0 0.00 0.00 0.00 13 1004.3
20260508212504 27 252 12.9 32.2 0.00 0.00 0.00 12 1004.4
20260508211522 27 230 19.3 32.2 0.00 0.00 0.00 13 1004.6
20260508210453 27 196 17.7 29.0 0.00 0.00 0.00 12 1004.5
20260508205447 27 222 17.7 29.0 0.00 0.00 0.00 13 1004.8
20260508204432 27 156 16.1 30.6 0.00 0.00 0.00 13 1004.9
20260508203400 26 186 16.1 30.6 0.00 0.00 0.00 13 1005.0
20260508202424 26 223 16.1 29.0 0.00 0.00 0.00 13 1005.1
20260508201416 27 269 19.3 40.2 0.00 0.00 0.00 13 1005.2
20260508195324 25 127 12.9 25.7 0.00 0.00 0.00 13 1005.4
20260508194338 26 182 11.3 25.7 0.00 0.00 0.00 14 1005.5
20260508193339 25 169 12.9 24.1 0.00 0.00 0.00 14 1005.6
20260508192338 26 252 11.3 30.6 0.00 0.00 0.00 13 1005.7
20260508185114 25 167 11.3 24.1 0.00 0.00 0.00 14 1005.9
20260508184044 26 252 11.3 24.1 0.00 0.00 0.00 14 1006.2
20260508183022 25 154 9.7 19.3 0.00 0.00 0.00 15 1006.2
20260508182030 25 242 6.4 19.3 0.00 0.00 0.00 15 1006.6
20260508175900 25 302 14.5 37.0 0.00 0.00 0.00 14 1007.0
20260508174913 24 259 12.9 27.4 0.00 0.00 0.00 15 1007.0
20260508173918 25 292 9.7 27.4 0.00 0.00 0.00 15 1007.2
20260508172906 24 227 14.5 29.0 0.00 0.00 0.00 15 1007.3
20260508170736 24 306 11.3 25.7 0.00 0.00 0.00 15 1007.6
20260508165719 24 322 11.3 22.5 0.00 0.00 0.00 15 1007.7
20260508164656 23 359 9.7 22.5 0.00 0.00 0.00 16 1007.8
20260508163654 23 151 6.4 22.5 0.00 0.00 0.00 16 1007.8
20260508162641 23 288 6.4 24.1 0.00 0.00 0.00 15 1007.8
20260508160548 22 327 6.4 19.3 0.00 0.00 0.00 16 1008.0
20260508155559 22 91 9.7 19.3 0.00 0.00 0.00 16 1008.0
20260508154547 21 257 12.9 24.1 0.00 0.00 0.00 15 1008.0
20260508153532 21 295 11.3 25.7 0.00 0.00 0.00 16 1007.9
20260508152529 21 217 12.9 29.0 0.00 0.00 0.00 15 1007.9
20260508151548 20 267 19.3 29.0 0.00 0.00 0.00 15 1007.9
20260508150548 20 264 9.7 27.4 0.00 0.00 0.00 14 1007.9
20260508144415 19 242 8.0 22.5 0.00 0.00 0.00 15 1008.1
20260508143427 19 192 9.7 19.3 0.00 0.00 0.00 15 1008.1
20260508141248 15 175 6.4 12.9 0.00 0.00 0.00 26 1008.0
20260508135135 13 218 8.0 16.1 0.00 0.00 0.00 28 1007.9
20260508134120 13 191 6.4 14.5 0.00 0.00 0.00 28 1007.8
20260508133136 13 4 6.4 16.1 0.00 0.00 0.00 27 1007.7
20260508125831 13 195 6.4 14.5 0.00 0.00 0.00 22 1007.4
20260508124835 13 242 8.0 14.5 0.00 0.00 0.00 22 1007.2
20260508123828 12 227 8.0 14.5 0.00 0.00 0.00 24 1007.1
20260508122846 13 223 8.0 14.5 0.00 0.00 0.00 24 1006.9
20260508121853 12 193 8.0 16.1 0.00 0.00 0.00 24 1006.9
20260508115748 13 173 9.7 17.7 0.00 0.00 0.00 25 1006.7
20260508114802 13 230 9.7 16.1 0.00 0.00 0.00 26 1006.7
20260508113745 13 198 8.0 16.1 0.00 0.00 0.00 26 1006.7
20260508112807 13 211 9.7 16.1 0.00 0.00 0.00 26 1006.6
20260508111820 12 212 8.0 14.5 0.00 0.00 0.00 26 1006.6
20260508110754 12 219 8.0 14.5 0.00 0.00 0.00 27 1006.7
20260508104636 12 227 6.4 14.5 0.00 0.00 0.00 27 1006.6
20260508103634 13 228 8.0 14.5 0.00 0.00 0.00 26 1006.6
20260508102635 13 231 8.0 14.5 0.00 0.00 0.00 26 1006.7
20260508101621 13 231 8.0 14.5 0.00 0.00 0.00 25 1006.6
20260508100604 13 226 8.0 12.9 0.00 0.00 0.00 25 1006.5
20260508095540 13 227 8.0 12.9 0.00 0.00 0.00 25 1006.4
20260508094558 14 233 6.4 9.7 0.00 0.00 0.00 23 1006.6
20260508093556 14 256 6.4 9.7 0.00 0.00 0.00 23 1006.6
20260508092555 13 254 6.4 9.7 0.00 0.00 0.00 24 1006.8
20260508091520 14 246 8.0 12.9 0.00 0.00 0.00 23 1006.8
20260508090458 14 255 8.0 12.9 0.00 0.00 0.00 23 1006.9
20260508085442 14 240 8.0 14.5 0.00 0.00 0.00 24 1007.1
20260508083256 13 248 8.0 12.9 0.00 0.00 0.00 24 1007.4
20260508082247 13 238 8.0 14.5 0.00 0.00 0.00 24 1007.6
20260508081311 13 222 8.0 14.5 0.00 0.00 0.00 24 1007.6
20260508080317 13 223 6.4 11.3 0.00 0.00 0.00 24 1008.0
20260508075254 14 216 4.8 11.3 0.00 0.00 0.00 23 1008.1
20260508074248 14 225 6.4 11.3 0.00 0.00 0.00 22 1008.1
20260508073242 14 221 6.4 9.7 0.00 0.00 0.00 22 1008.1
20260508072245 14 237 4.8 9.7 0.00 0.00 0.00 22 1008.2
20260508071306 14 221 3.2 9.7 0.00 0.00 0.00 22 1008.3
20260508065207 15 226 6.4 12.9 0.00 0.00 0.00 20 1008.4
20260508064133 16 234 8.0 14.5 0.00 0.00 0.00 20 1008.4
20260508061918 15 251 8.0 12.9 0.00 0.00 0.00 21 1008.3
20260508060900 15 231 4.8 8.0 0.00 0.00 0.00 21 1008.2
20260508055916 15 240 4.8 8.0 0.00 0.00 0.00 21 1008.3
20260508054843 15 244 4.8 12.9 0.00 0.00 0.00 21 1008.3
20260508053835 16 230 6.4 12.9 0.00 0.00 0.00 21 1008.3
20260508052845 16 224 6.4 11.3 0.00 0.00 0.00 21 1008.2
20260508051819 15 231 6.4 8.0 0.00 0.00 0.00 22 1008.3
20260508050759 15 242 4.8 4.8 0.00 0.00 0.00 22 1008.2
20260508045749 15 234 4.8 8.0 0.00 0.00 0.00 22 1008.3
20260508044809 16 232 4.8 8.0 0.00 0.00 0.00 21 1008.2
20260508043802 16 229 4.8 9.7 0.00 0.00 0.00 21 1008.3
20260508042732 16 229 6.4 9.7 0.00 0.00 0.00 21 1008.2
20260508041717 16 233 6.4 9.7 0.00 0.00 0.00 21 1008.1
20260508040647 16 232 6.4 9.7 0.00 0.00 0.00 22 1008.1
20260508035616 15 234 6.4 8.0 0.00 0.00 0.00 22 1008.0
20260508034607 15 236 3.2 6.4 0.00 0.00 0.00 22 1007.8
20260508033601 15 227 3.2 6.4 0.00 0.00 0.00 22 1007.6
20260508032602 15 234 4.8 6.4 0.00 0.00 0.00 22 1007.5
20260508031558 16 252 3.2 4.8 0.00 0.00 0.00 22 1007.3
20260508030610 16 211 1.6 4.8 0.00 0.00 0.00 21 1007.1
20260508023304 17 179 1.6 4.8 0.00 0.00 0.00 21 1006.7
20260508022249 17 134 0.0 4.8 0.00 0.00 0.00 20 1006.7
20260508021303 18 117 1.6 4.8 0.00 0.00 0.00 20 1006.6
20260508020239 18 150 0.0 4.8 0.00 0.00 0.00 19 1006.4
20260508015306 19 114 1.6 4.8 0.00 0.00 0.00 18 1006.3
20260508014250 20 104 3.2 9.7 0.00 0.00 0.00 18 1006.2
20260508012110 21 56 4.8 12.9 0.00 0.00 0.00 17 1006.1
20260508011115 21 69 3.2 8.0 0.00 0.00 0.00 17 1006.2
20260508010112 22 52 4.8 14.5 0.00 0.00 0.00 17 1006.2
20260508005057 22 96 6.4 14.5 0.00 0.00 0.00 16 1006.2
20260508001834 23 174 4.8 17.7 0.00 0.00 0.00 15 1006.2
20260508000833 22 150 6.4 17.7 0.00 0.00 0.00 16 1006.2
20260507235818 23 180 6.4 19.3 0.00 0.00 0.00 16 1006.2
20260507234815 23 207 9.7 19.3 0.00 0.00 0.00 16 1006.2
20260507233828 23 111 8.0 19.3 0.00 0.00 0.00 15 1006.3
20260507232852 23 228 12.9 25.7 0.00 0.00 0.00 16 1006.3
20260507231840 23 150 11.3 25.7 0.00 0.00 0.00 16 1006.3
20260507225709 23 90 6.4 17.7 0.00 0.00 0.00 16 1006.4
20260507223619 22 211 11.3 24.1 0.00 0.00 0.00 16 1006.4